Precipitable_Water
1.35 1.35 1.32 1.32 1.34 1.34 1.31 1.27 1.28 1.32 1.33 1.33 1.26 1.22 1.19 1.18 1.20 1.19 1.19 1.19 1.18 1.17 1.16 1.19 1.22 1.23 1.26 1.29 1.28 1.26 1.22 1.16 1.13 1.13 1.10 1.08 1.08 1.10 1.08 1.07 1.07 1.05
1.33 1.34 1.33 1.34 1.34 1.33 1.30 1.30 1.32 1.33 1.32 1.31 1.27 1.24 1.22 1.18 1.18 1.19 1.17 1.16 1.16 1.15 1.16 1.17 1.17 1.19 1.22 1.24 1.25 1.22 1.18 1.15 1.11 1.16 1.11 1.08 1.07 1.08 1.06 1.07 1.08 1.08
1.31 1.34 1.34 1.32 1.30 1.28 1.25 1.31 1.34 1.34 1.33 1.32 1.32 1.26 1.19 1.17 1.17 1.17 1.16 1.14 1.13 1.13 1.14 1.14 1.13 1.17 1.20 1.22 1.23 1.21 1.17 1.15 1.11 1.15 1.12 1.10 1.10 1.07 1.07 1.09 1.08 1.06
1.25 1.32 1.38 1.36 1.33 1.27 1.28 1.29 1.32 1.35 1.37 1.34 1.32 1.27 1.18 1.17 1.18 1.17 1.16 1.15 1.11 1.09 1.10 1.11 1.11 1.16 1.18 1.19 1.20 1.19 1.20 1.18 1.19 1.18 1.13 1.12 1.12 1.11 1.09 1.09 1.08 1.08
1.26 1.32 1.39 1.36 1.33 1.31 1.29 1.28 1.29 1.35 1.34 1.34 1.32 1.24 1.16 1.16 1.16 1.15 1.15 1.13 1.10 1.08 1.09 1.10 1.12 1.12 1.15 1.14 1.14 1.13 1.16 1.15 1.17 1.18 1.13 1.09 1.11 1.09 1.10 1.11 1.08 1.07
1.32 1.37 1.40 1.36 1.33 1.29 1.27 1.27 1.30 1.32 1.33 1.31 1.25 1.18 1.15 1.16 1.16 1.15 1.14 1.10 1.07 1.06 1.06 1.07 1.07 1.07 1.08 1.07 1.06 1.05 1.08 1.10 1.14 1.15 1.12 1.10 1.09 1.11 1.13 1.11 1.08 1.06
1.27 1.31 1.33 1.34 1.34 1.30 1.27 1.27 1.29 1.29 1.29 1.27 1.23 1.16 1.15 1.14 1.13 1.12 1.10 1.07 1.05 1.04 1.01 1.01 1.00 0.97 1.00 1.00 0.98 1.00 1.04 1.08 1.09 1.11 1.09 1.09 1.08 1.09 1.13 1.10 1.08 1.06
1.25 1.30 1.32 1.33 1.32 1.29 1.27 1.25 1.26 1.26 1.26 1.23 1.17 1.18 1.17 1.12 1.09 1.07 1.06 1.08 1.05 1.03 1.02 0.98 0.95 0.92 0.94 0.95 0.94 0.96 0.97 1.02 1.03 1.04 1.04 1.05 1.05 1.05 1.08 1.07 1.08 1.06
1.29 1.32 1.33 1.34 1.32 1.29 1.26 1.25 1.25 1.25 1.25 1.16 1.16 1.18 1.17 1.15 1.07 1.06 1.08 1.10 1.04 1.04 1.00 0.93 0.93 0.93 0.95 0.93 0.93 0.92 0.92 0.95 0.97 0.97 0.98 0.98 1.00 1.03 1.05 1.07 1.06 1.06
1.30 1.35 1.36 1.34 1.31 1.29 1.27 1.27 1.24 1.25 1.23 1.15 1.18 1.19 1.13 1.13 1.10 1.10 1.10 1.08 1.03 1.01 0.96 0.96 0.95 0.94 0.94 0.94 0.93 0.94 0.94 0.93 0.94 0.94 0.93 0.92 0.93 1.03 1.07 1.09 1.07 1.05
1.32 1.38 1.38 1.37 1.33 1.30 1.28 1.29 1.26 1.23 1.17 1.12 1.17 1.16 1.14 1.12 1.11 1.12 1.04 0.96 0.95 0.94 0.95 0.98 0.97 0.92 0.89 0.88 0.89 0.90 0.89 0.87 0.89 0.93 0.93 0.91 0.90 0.97 1.06 1.11 1.09 1.05
1.31 1.34 1.37 1.36 1.35 1.32 1.29 1.30 1.28 1.21 1.13 1.13 1.15 1.12 1.12 1.12 1.11 1.06 0.94 0.86 0.87 0.92 0.96 0.98 0.97 0.93 0.88 0.85 0.85 0.87 0.86 0.83 0.85 0.91 0.88 0.88 0.92 1.01 1.09 1.13 1.12 1.10
1.31 1.30 1.29 1.32 1.36 1.31 1.31 1.29 1.26 1.21 1.16 1.13 1.14 1.12 1.11 1.11 1.09 0.99 0.93 0.89 0.89 0.92 0.95 0.95 0.93 0.92 0.89 0.86 0.87 0.87 0.86 0.84 0.86 0.88 0.87 0.90 0.95 1.04 1.11 1.15 1.15 1.13
1.34 1.39 1.36 1.35 1.39 1.33 1.30 1.29 1.27 1.22 1.16 1.14 1.16 1.11 1.09 1.10 1.04 0.97 0.94 0.93 0.93 0.95 0.96 0.95 0.94 0.92 0.89 0.87 0.86 0.85 0.84 0.82 0.83 0.83 0.84 0.89 0.94 1.03 1.11 1.17 1.16 1.14
1.29 1.32 1.36 1.37 1.37 1.37 1.31 1.28 1.31 1.23 1.16 1.15 1.13 1.12 1.11 1.07 1.02 0.99 0.95 0.92 0.91 0.95 0.96 0.97 0.96 0.94 0.90 0.85 0.83 0.82 0.83 0.81 0.84 0.83 0.84 0.85 0.91 0.99 1.05 1.11 1.09 1.06
1.27 1.29 1.31 1.33 1.34 1.33 1.35 1.27 1.25 1.24 1.16 1.09 1.09 1.11 1.07 1.04 1.01 1.01 0.98 0.91 0.88 0.91 0.95 0.95 0.94 0.95 0.91 0.86 0.81 0.79 0.80 0.83 0.85 0.85 0.85 0.83 0.85 0.92 1.01 1.05 1.07 1.03
1.27 1.26 1.30 1.32 1.33 1.34 1.35 1.26 1.22 1.24 1.14 1.08 1.09 1.09 1.06 1.03 1.04 1.01 0.97 0.92 0.91 0.93 0.94 0.95 0.94 0.97 0.95 0.91 0.84 0.80 0.82 0.85 0.86 0.88 0.89 0.85 0.83 0.88 0.95 0.99 1.00 1.02
1.24 1.26 1.28 1.31 1.32 1.31 1.31 1.28 1.21 1.26 1.16 1.09 1.08 1.07 1.05 1.02 1.01 0.98 0.94 0.91 0.92 0.93 0.93 0.93 0.95 0.98 0.98 0.94 0.86 0.82 0.86 0.89 0.88 0.87 0.89 0.87 0.86 0.84 0.86 0.94 0.94 0.93
1.29 1.26 1.27 1.30 1.31 1.32 1.31 1.25 1.20 1.22 1.14 1.11 1.07 1.07 1.03 0.99 0.97 0.94 0.90 0.90 0.91 0.90 0.88 0.92 0.94 0.99 1.01 0.99 0.91 0.87 0.87 0.92 0.91 0.90 0.90 0.88 0.89 0.89 0.86 0.88 0.91 0.90
1.28 1.27 1.27 1.29 1.31 1.32 1.30 1.22 1.16 1.18 1.15 1.12 1.08 1.06 1.00 0.96 0.93 0.90 0.89 0.88 0.89 0.89 0.89 0.90 0.93 0.98 1.01 1.00 0.97 0.92 0.88 0.93 0.94 0.93 0.94 0.93 0.91 0.91 0.91 0.90 0.88 0.87
1.27 1.27 1.28 1.30 1.31 1.29 1.25 1.20 1.16 1.21 1.14 1.10 1.06 1.01 0.97 0.93 0.90 0.89 0.88 0.88 0.88 0.89 0.89 0.90 0.93 0.97 1.00 1.01 0.99 0.96 0.94 0.94 0.96 0.94 0.95 0.96 0.97 0.97 0.97 0.97 0.96 0.96
1.27 1.24 1.26 1.28 1.28 1.26 1.22 1.17 1.17 1.19 1.11 1.08 1.04 1.01 0.99 0.97 0.95 0.94 0.91 0.89 0.89 0.90 0.90 0.91 0.94 0.97 0.99 1.00 1.01 1.00 1.00 0.99 0.99 0.96 0.94 0.95 0.97 0.98 1.01 1.02 1.03 1.02
1.24 1.25 1.24 1.25 1.24 1.22 1.16 1.14 1.17 1.11 1.10 1.07 1.02 0.99 0.97 0.97 0.96 0.95 0.94 0.92 0.90 0.90 0.90 0.92 0.94 0.97 0.98 0.99 1.00 1.01 1.00 1.01 1.00 1.02 1.02 1.00 0.99 1.02 1.04 1.04 1.05 1.04
1.20 1.22 1.22 1.21 1.23 1.17 1.12 1.12 1.13 1.13 1.11 1.10 1.03 0.99 0.97 0.97 0.97 0.96 0.96 0.94 0.92 0.91 0.92 0.92 0.93 0.96 0.98 0.98 0.99 0.99 0.99 0.98 0.99 0.99 1.03 1.05 1.06 1.06 1.05 1.04 1.04 1.03
1.17 1.19 1.20 1.21 1.18 1.15 1.14 1.11 1.11 1.11 1.12 1.11 1.08 1.04 1.01 0.99 0.98 0.95 0.93 0.93 0.92 0.92 0.93 0.93 0.93 0.93 0.94 0.96 0.97 0.99 1.00 1.00 0.98 0.99 0.94 0.93 0.97 0.98 1.00 0.99 0.98 0.98
1.06 1.11 1.15 1.16 1.17 1.17 1.15 1.13 1.15 1.13 1.11 1.09 1.05 1.04 1.00 0.99 0.97 0.94 0.91 0.89 0.89 0.88 0.85 0.85 0.85 0.83 0.86 0.91 0.95 0.98 0.99 0.99 0.98 0.95 0.95 0.99 1.00 0.98 0.97 0.97 0.96 0.94
Wind_Speed
16 16 16 15 15 15 16 16 17 18 18 18 17 18 18 17 17 16 16 16 16 15 15 15 15 15 14 14 13 13 13 13 13 13 13 13 13 13 13 13 12 12
17 17 17 16 15 15 16 17 17 18 18 18 18 18 18 17 17 17 17 16 16 15 15 15 15 15 14 14 14 13 13 13 13 13 12 13 13 13 13 13 12 12
18 18 17 16 16 16 17 17 17 18 18 19 19 18 18 18 18 17 17 16 15 15 15 15 15 15 15 14 14 13 13 13 13 13 13 13 12 12 13 12 12 12
18 18 17 17 17 17 17 18 18 18 19 19 19 19 19 19 18 17 17 16 16 16 16 16 15 15 14 14 14 14 14 14 13 13 13 13 12 12 12 12 12 12
18 18 18 18 18 18 18 18 18 18 19 19 18 19 19 19 19 18 17 16 16 16 16 15 15 15 14 14 14 14 14 14 14 14 13 13 13 12 12 12 12 12
18 18 19 19 19 19 19 19 19 19 19 19 19 19 20 20 19 18 17 16 16 16 16 15 15 15 14 14 14 14 14 15 14 14 14 13 13 13 12 12 12 12
17 18 19 19 19 19 19 19 19 19 20 20 20 20 20 20 19 18 17 17 16 16 16 16 15 15 14 14 14 14 14 14 14 14 14 13 13 13 13 12 12 12
18 18 19 19 19 19 19 18 19 20 21 21 21 21 21 20 19 18 17 17 16 16 16 16 15 15 14 14 14 14 14 14 14 14 14 13 13 13 13 13 13 13
19 20 20 20 20 20 19 18 19 20 21 22 22 21 21 20 20 19 18 16 16 16 16 15 15 14 14 14 14 14 14 14 14 14 13 13 13 13 13 13 13 13
20 21 21 21 21 20 20 19 19 20 22 22 22 21 21 20 20 19 17 17 16 17 16 15 15 14 14 14 14 14 14 14 14 14 13 13 13 13 13 13 13 13
20 21 21 21 21 21 21 20 20 21 22 22 22 21 21 21 20 18 17 16 17 17 16 15 15 14 14 14 13 14 14 15 15 14 13 13 13 14 14 13 13 13
20 21 21 22 23 22 22 21 21 21 22 23 22 22 21 21 20 18 16 16 17 17 16 15 14 14 14 14 13 13 13 13 14 14 13 13 13 14 14 13 13 14
20 22 22 23 23 23 23 22 22 23 23 23 23 22 22 22 20 19 17 16 16 16 15 15 14 13 13 14 13 12 12 13 13 14 13 13 13 13 13 13 13 13
20 21 22 22 24 24 23 22 23 24 24 23 23 23 22 21 20 19 18 16 16 15 15 14 14 13 13 13 13 13 13 13 13 14 14 13 13 13 13 13 13 13
19 21 21 22 24 24 22 22 23 24 24 23 23 24 22 21 20 19 18 17 16 16 15 14 14 13 13 13 13 13 13 13 13 14 14 13 13 13 13 13 13 12
19 20 20 21 24 25 23 22 23 24 23 23 23 24 23 21 20 19 19 18 17 16 15 14 14 14 13 13 13 14 14 13 13 14 14 13 13 14 14 13 13 12
19 20 20 21 23 25 23 23 24 25 24 23 23 24 23 22 21 20 20 19 18 17 16 15 14 14 13 13 13 14 14 13 13 14 15 14 14 14 14 14 13 13
19 20 21 21 22 24 24 23 24 25 24 23 23 24 23 23 22 21 20 19 18 17 16 15 15 14 13 13 13 13 14 13 14 14 15 15 15 15 15 15 14 13
19 20 20 21 22 23 23 24 24 26 25 23 23 24 24 23 23 21 20 19 18 17 16 16 15 14 14 13 13 13 14 14 14 14 14 15 15 15 15 15 15 14
16 18 19 20 21 22 23 23 25 26 25 23 23 24 24 24 22 21 19 19 18 18 17 16 15 14 14 14 13 13 14 14 14 14 14 15 15 15 15 15 15 15
13 16 17 19 20 22 22 23 24 25 24 23 24 25 24 23 22 21 20 19 19 19 18 17 16 15 14 14 14 14 14 14 15 15 15 15 15 15 15 15 15 15
11 13 16 18 20 20 21 23 24 25 23 22 24 25 24 22 22 21 20 20 19 19 19 17 16 15 15 15 15 15 15 15 15 15 15 15 15 15 15 16 16 16
9 11 14 17 18 19 20 22 24 24 23 23 24 24 23 22 21 20 20 20 19 19 19 18 17 16 16 16 16 16 16 16 15 15 15 15 15 16 16 16 16 16
7 10 12 15 17 18 19 21 23 23 24 24 24 23 23 22 21 20 19 19 19 18 18 18 18 17 16 16 16 16 17 17 17 16 16 16 16 16 16 17 17 17
4 8 11 12 14 16 17 19 21 22 23 23 23 22 22 21 21 20 19 18 18 18 18 18 18 17 17 17 17 17 17 18 18 18 18 18 18 18 18 18 18 18
2 5 8 10 12 13 14 16 19 20 21 21 20 20 21 21 21 20 19 18 18 18 18 18 18 18 17 17 17 18 18 19 19 19 19 20 20 20 20 19 19 20
Wind_Direction
227 224 224 226 227 226 222 220 218 216 216 215 213 212 213 215 216 216 217 218 219 219 219 218 218 220 220 219 219 220 220 220 220 222 223 224 225 227 228 229 229 228
227 227 229 230 229 226 222 219 216 215 216 214 212 213 214 214 215 216 217 218 219 219 218 218 219 221 220 219 219 220 221 221 220 221 222 223 226 228 229 229 228 228
226 229 230 230 228 224 220 217 214 215 214 212 212 214 214 214 214 215 218 219 218 217 217 218 220 220 219 219 220 221 221 221 221 222 223 224 227 228 228 229 228 227
225 227 228 228 226 222 218 215 214 214 213 211 212 214 213 213 214 215 217 218 216 215 217 218 219 218 218 219 220 222 222 221 222 223 224 226 227 227 226 226 226 225
226 225 226 227 225 221 218 217 216 215 213 212 212 212 212 212 213 214 214 214 214 214 216 217 217 217 218 219 221 223 223 222 223 224 225 226 226 226 225 224 223 222
225 225 225 226 224 222 220 219 219 217 214 213 211 211 210 210 211 211 211 211 212 214 215 215 216 218 219 221 222 223 223 223 223 224 225 226 226 225 223 222 220 220
226 226 225 225 225 223 221 221 220 218 214 211 210 210 210 209 210 211 210 210 211 212 213 213 214 217 219 221 222 222 222 223 223 224 224 225 224 222 221 219 218 219
228 227 226 225 223 221 221 220 218 216 213 210 210 210 210 210 211 210 209 210 210 211 212 213 214 216 218 220 220 220 221 222 222 222 223 224 222 220 219 217 217 218
231 229 226 224 220 219 219 218 216 215 212 210 210 210 210 210 210 209 210 212 211 211 212 212 213 215 216 217 218 218 219 220 221 222 222 223 222 219 218 217 217 217
233 231 227 223 220 219 218 217 216 214 211 209 210 209 209 209 208 209 212 212 210 210 210 210 212 214 215 217 219 220 221 222 223 223 223 224 222 220 219 218 217 217
234 233 228 223 221 219 218 217 216 213 210 208 209 209 208 207 208 210 211 209 208 209 209 208 209 212 214 218 221 223 225 225 223 222 224 224 223 221 221 220 218 218
235 234 230 225 222 218 216 215 215 213 209 207 207 208 206 207 209 210 208 206 207 208 207 207 209 212 215 218 220 221 222 221 218 219 221 222 221 220 220 220 219 218
237 234 230 226 222 216 213 214 213 211 207 206 206 206 206 207 209 208 206 205 206 206 207 209 212 214 217 219 220 218 217 216 215 217 219 220 219 218 219 220 219 216
239 235 231 226 221 215 212 213 211 207 205 206 206 205 204 205 206 205 204 204 206 207 210 213 214 216 219 222 222 219 217 217 218 218 218 218 217 217 217 216 214 212
239 236 232 225 219 214 212 212 209 204 203 205 205 204 203 203 204 203 203 204 207 210 213 215 215 217 221 225 225 223 221 222 222 218 216 216 215 214 213 211 211 213
239 234 229 223 216 213 212 211 206 203 202 204 203 202 201 202 203 203 203 204 208 211 214 216 217 219 222 226 227 225 223 223 222 217 214 213 214 214 213 213 214 218
236 231 225 220 215 213 212 211 206 203 202 202 202 202 201 201 202 203 204 206 208 210 212 215 217 219 222 225 225 222 221 222 221 217 214 214 215 215 215 216 218 221
234 227 221 218 215 212 211 209 205 203 201 201 202 202 200 201 202 203 205 206 207 209 211 215 218 220 222 223 222 220 219 220 220 218 217 217 216 217 219 221 222 226
230 223 219 218 213 209 209 208 205 204 202 201 202 201 200 201 203 204 206 208 209 211 213 215 218 222 223 222 221 220 219 219 221 220 219 220 219 218 220 223 225 228
225 219 216 215 211 207 208 207 204 202 201 203 203 201 201 203 204 206 209 210 212 213 214 216 220 224 224 221 221 222 220 221 223 223 223 224 223 222 223 225 227 230
222 218 213 210 207 205 205 204 201 199 200 204 203 200 201 204 206 209 211 211 213 214 215 218 222 225 224 222 221 222 221 223 226 226 227 228 228 228 229 230 231 233
222 217 209 205 203 203 202 199 197 198 201 203 201 200 202 205 207 210 212 213 215 217 217 219 222 226 226 224 222 222 222 225 227 228 229 229 230 233 233 234 236 236
220 212 204 201 200 200 199 198 200 202 204 203 201 201 204 207 208 211 213 215 217 219 219 219 222 225 227 226 226 226 226 228 230 229 229 230 232 235 236 237 239 240
216 204 199 199 199 200 202 205 206 207 206 203 202 204 207 209 210 211 213 215 217 219 220 220 221 226 229 229 230 231 231 233 234 232 232 234 238 240 241 241 243 246
211 198 197 198 200 203 205 205 205 204 203 202 203 205 208 210 211 211 212 215 217 218 219 220 222 226 229 231 233 236 237 237 238 238 237 239 242 245 246 246 249 251
200 188 192 195 198 202 202 200 198 198 199 200 204 207 210 211 212 212 213 215 217 219 220 223 225 228 231 235 238 241 242 242 243 242 241 240 242 244 247 249 252 254